Location: Seattle
(47.6060°N, 122.3310°W)
Time: 18:49:31
(UTC-07:00)

ISS - Visible Passes

Search period start: 25 October 2014 00:00
Search period end: 03 November 2014 23:00
Orbit: 412 x 416 km, 51.6° (Epoch: 25 October)

Date Brightness Start Highest point End Pass type
(mag) Time Alt. Az. Time Alt. Az. Time Alt. Az.
25 Oct -2.3 18:55:50 10° WNW 18:59:04 46° SSW 19:02:17 10° SE visible
26 Oct -0.3 19:44:21 10° WSW 19:46:07 14° SW 19:47:52 10° SSW visible
27 Oct -0.7 18:54:27 10° W 18:57:04 21° SW 18:59:41 10° S visible
